| time (UTC) | temp C | wind direction | speed KPH | gust KPH | rain 1hr cm | rain 24hr cm | rain mn cm | humidity % | barometer mb |
| 20260506154510 | 16 | 334 | 0.0 | 1.6 | 0.00 | 0.20 | 0.00 | 62 | 1012.3 |
| 20260506154012 | 16 | 303 | 1.6 | 8.0 | 0.00 | 0.20 | 0.00 | 63 | 1012.3 |
| 20260506153511 | 15 | 336 | 0.0 | 3.2 | 0.00 | 0.20 | 0.00 | 63 | 1012.4 |
| 20260506153010 | 16 | 6 | 0.0 | 1.6 | 0.00 | 0.20 | 0.00 | 62 | 1012.2 |
| 20260506152509 | 16 | 332 | 1.6 | 9.7 | 0.00 | 0.20 | 0.00 | 62 | 1012.3 |
| 20260506152010 | 16 | 336 | 0.0 | 9.7 | 0.00 | 0.20 | 0.00 | 61 | 1012.3 |
| 20260506151511 | 16 | 338 | 1.6 | 8.0 | 0.00 | 0.20 | 0.00 | 61 | 1012.3 |
| 20260506151013 | 16 | 342 | 1.6 | 4.8 | 0.00 | 0.20 | 0.00 | 62 | 1012.3 |
| 20260506150511 | 16 | 335 | 1.6 | 8.0 | 0.00 | 0.20 | 0.00 | 62 | 1012.3 |
| 20260506150010 | 16 | 321 | 1.6 | 19.3 | 0.00 | 0.20 | 0.00 | 62 | 1012.4 |
| 20260506145511 | 16 | 331 | 1.6 | 8.0 | 0.00 | 0.20 | 0.00 | 63 | 1012.4 |
| 20260506145010 | 15 | 23 | 1.6 | 8.0 | 0.00 | 0.20 | 0.00 | 64 | 1012.4 |
| 20260506144510 | 15 | 279 | 0.0 | 4.8 | 0.00 | 0.20 | 0.00 | 65 | 1012.5 |
| 20260506144010 | 15 | 6 | 1.6 | 9.7 | 0.00 | 0.20 | 0.00 | 65 | 1012.6 |
| 20260506143510 | 15 | 341 | 1.6 | 4.8 | 0.00 | 0.20 | 0.00 | 66 | 1012.6 |
| 20260506143010 | 14 | 19 | 1.6 | 3.2 | 0.00 | 0.20 | 0.00 | 66 | 1012.8 |
| 20260506142511 | 14 | 45 | 0.0 | 3.2 | 0.00 | 0.20 | 0.00 | 64 | 1012.8 |
| 20260506142010 | 15 | 28 | 0.0 | 0.0 | 0.00 | 0.20 | 0.00 | 63 | 1012.7 |
| 20260506141510 | 15 | 338 | 0.0 | 3.2 | 0.00 | 0.20 | 0.00 | 62 | 1012.7 |
| 20260506141010 | 16 | 26 | 0.0 | 3.2 | 0.00 | 0.20 | 0.00 | 61 | 1012.7 |
| 20260506140511 | 16 | 1 | 0.0 | 1.6 | 0.00 | 0.20 | 0.00 | 61 | 1012.7 |
| 20260506140010 | 17 | 183 | 1.6 | 4.8 | 0.00 | 0.20 | 0.00 | 62 | 1012.7 |
| 20260506135510 | 16 | 175 | 1.6 | 8.0 | 0.00 | 0.20 | 0.00 | 61 | 1012.8 |
| 20260506135011 | 16 | 325 | 0.0 | 1.6 | 0.00 | 0.20 | 0.00 | 61 | 1012.8 |
| 20260506134510 | 16 | 52 | 0.0 | 1.6 | 0.00 | 0.20 | 0.00 | 62 | 1012.8 |
| 20260506134010 | 16 | 45 | 0.0 | 0.0 | 0.00 | 0.20 | 0.00 | 61 | 1012.8 |
| 20260506133510 | 16 | 22 | 0.0 | 4.8 | 0.00 | 0.20 | 0.00 | 61 | 1012.8 |
| 20260506133011 | 16 | 16 | 0.0 | 4.8 | 0.00 | 0.20 | 0.00 | 60 | 1012.9 |
| 20260506132513 | 16 | 291 | 0.0 | 3.2 | 0.00 | 0.20 | 0.00 | 60 | 1012.8 |
| 20260506132010 | 16 | 327 | 0.0 | 0.0 | 0.00 | 0.20 | 0.00 | 59 | 1012.9 |
| 20260506131511 | 17 | 348 | 0.0 | 11.3 | 0.00 | 0.20 | 0.00 | 59 | 1012.7 |
| 20260506131011 | 17 | 43 | 1.6 | 11.3 | 0.00 | 0.20 | 0.00 | 60 | 1012.8 |
| 20260506130510 | 17 | 36 | 0.0 | 9.7 | 0.00 | 0.20 | 0.00 | 60 | 1012.7 |
| 20260506130010 | 16 | 354 | 0.0 | 3.2 | 0.00 | 0.20 | 0.00 | 60 | 1012.8 |
| 20260506125510 | 16 | 350 | 0.0 | 1.6 | 0.00 | 0.20 | 0.00 | 61 | 1012.8 |
| 20260506125010 | 16 | 17 | 0.0 | 3.2 | 0.00 | 0.20 | 0.00 | 62 | 1012.7 |
| 20260506124511 | 16 | 68 | 0.0 | 1.6 | 0.00 | 0.20 | 0.00 | 61 | 1012.8 |
| 20260506124011 | 16 | 129 | 0.0 | 0.0 | 0.00 | 0.20 | 0.00 | 61 | 1012.7 |
| 20260506123510 | 16 | 120 | 0.0 | 4.8 | 0.00 | 0.20 | 0.00 | 61 | 1012.8 |
| 20260506123011 | 16 | 22 | 1.6 | 4.8 | 0.00 | 0.25 | 0.00 | 61 | 1012.7 |
| 20260506122512 | 15 | 30 | 0.0 | 4.8 | 0.00 | 0.30 | 0.00 | 63 | 1012.8 |
| 20260506122010 | 15 | 282 | 0.0 | 0.0 | 0.00 | 0.30 | 0.00 | 64 | 1012.6 |
| 20260506121510 | 15 | 0 | 0.0 | 0.0 | 0.00 | 0.30 | 0.00 | 64 | 1012.7 |
| 20260506121010 | 14 | 16 | 0.0 | 0.0 | 0.00 | 0.36 | 0.00 | 64 | 1012.8 |
| 20260506120511 | 15 | 307 | 0.0 | 0.0 | 0.00 | 0.36 | 0.00 | 63 | 1012.8 |
| 20260506120010 | 15 | 0 | 0.0 | 0.0 | 0.00 | 0.36 | 0.00 | 61 | 1012.7 |
| 20260506115510 | 15 | 22 | 0.0 | 4.8 | 0.00 | 0.36 | 0.00 | 60 | 1012.7 |
| 20260506115011 | 15 | 301 | 0.0 | 3.2 | 0.00 | 0.36 | 0.00 | 59 | 1012.7 |
| 20260506114510 | 16 | 22 | 0.0 | 0.0 | 0.00 | 0.36 | 0.00 | 57 | 1012.8 |
| 20260506114010 | 17 | 45 | 0.0 | 4.8 | 0.00 | 0.36 | 0.00 | 56 | 1012.7 |
| 20260506113509 | 18 | 18 | 0.0 | 3.2 | 0.00 | 0.41 | 0.00 | 55 | 1012.8 |
| 20260506113010 | 19 | 344 | 1.6 | 9.7 | 0.00 | 0.41 | 0.00 | 54 | 1012.6 |
| 20260506112510 | 19 | 31 | 0.0 | 9.7 | 0.00 | 0.41 | 0.00 | 54 | 1012.5 |
| 20260506112010 | 19 | 1 | 0.0 | 3.2 | 0.00 | 0.41 | 0.00 | 56 | 1012.7 |
| 20260506111510 | 18 | 132 | 0.0 | 1.6 | 0.00 | 0.41 | 0.00 | 59 | 1012.6 |
| 20260506111010 | 17 | 237 | 0.0 | 8.0 | 0.00 | 0.41 | 0.00 | 58 | 1012.7 |
| 20260506110510 | 17 | 6 | 0.0 | 11.3 | 0.00 | 0.41 | 0.00 | 57 | 1012.8 |
| 20260506110009 | 18 | 27 | 1.6 | 8.0 | 0.00 | 0.41 | 0.00 | 58 | 1012.9 |
| 20260506105510 | 18 | 331 | 1.6 | 8.0 | 0.00 | 0.41 | 0.00 | 59 | 1012.5 |
| 20260506105010 | 17 | 22 | 1.6 | 8.0 | 0.00 | 0.41 | 0.00 | 59 | 1012.6 |
| 20260506104511 | 17 | 19 | 0.0 | 3.2 | 0.00 | 0.41 | 0.00 | 59 | 1012.6 |
| 20260506104009 | 17 | 0 | 0.0 | 0.0 | 0.00 | 0.41 | 0.00 | 58 | 1012.6 |
| 20260506103510 | 17 | 336 | 0.0 | 4.8 | 0.00 | 0.41 | 0.00 | 58 | 1012.6 |
| 20260506103009 | 17 | 247 | 0.0 | 4.8 | 0.00 | 0.41 | 0.00 | 59 | 1012.6 |
| 20260506102510 | 17 | 2 | 1.6 | 9.7 | 0.00 | 0.41 | 0.00 | 60 | 1012.7 |
| 20260506102010 | 16 | 0 | 0.0 | 0.0 | 0.00 | 0.41 | 0.00 | 58 | 1012.6 |
| 20260506101510 | 17 | 358 | 1.6 | 4.8 | 0.00 | 0.41 | 0.00 | 57 | 1012.8 |
| 20260506101013 | 17 | 45 | 0.0 | 0.0 | 0.00 | 0.41 | 0.00 | 59 | 1012.6 |
| 20260506100510 | 17 | 315 | 0.0 | 3.2 | 0.00 | 0.41 | 0.00 | 59 | 1012.5 |
| 20260506100010 | 17 | 291 | 0.0 | 0.0 | 0.00 | 0.41 | 0.00 | 61 | 1012.5 |
| 20260506095510 | 16 | 0 | 0.0 | 1.6 | 0.00 | 0.41 | 0.00 | 61 | 1012.5 |
| 20260506095011 | 16 | 353 | 0.0 | 0.0 | 0.00 | 0.41 | 0.00 | 61 | 1012.5 |
| 20260506094509 | 16 | 22 | 0.0 | 0.0 | 0.00 | 0.41 | 0.00 | 61 | 1012.6 |
| 20260506094010 | 16 | 0 | 0.0 | 0.0 | 0.00 | 0.41 | 0.00 | 61 | 1012.5 |
| 20260506093510 | 16 | 338 | 0.0 | 0.0 | 0.00 | 0.41 | 0.00 | 61 | 1012.6 |
| 20260506093010 | 16 | 22 | 0.0 | 0.0 | 0.00 | 0.41 | 0.00 | 61 | 1012.7 |
| 20260506092509 | 16 | 0 | 0.0 | 1.6 | 0.00 | 0.41 | 0.00 | 62 | 1012.5 |
| 20260506092009 | 16 | 338 | 1.6 | 4.8 | 0.00 | 0.41 | 0.00 | 61 | 1012.5 |
| 20260506091509 | 16 | 338 | 0.0 | 3.2 | 0.00 | 0.41 | 0.00 | 61 | 1012.5 |
| 20260506091011 | 16 | 90 | 0.0 | 0.0 | 0.00 | 0.41 | 0.00 | 60 | 1012.5 |
| 20260506090513 | 16 | 141 | 0.0 | 0.0 | 0.00 | 0.41 | 0.00 | 60 | 1012.4 |
| 20260506090009 | 17 | 45 | 0.0 | 0.0 | 0.00 | 0.41 | 0.00 | 60 | 1012.4 |
| 20260506085510 | 17 | 0 | 0.0 | 0.0 | 0.00 | 0.41 | 0.00 | 58 | 1012.4 |
| 20260506085010 | 17 | 51 | 0.0 | 4.8 | 0.00 | 0.41 | 0.00 | 57 | 1012.5 |
| 20260506084509 | 18 | 3 | 0.0 | 4.8 | 0.00 | 0.41 | 0.00 | 56 | 1012.4 |
| 20260506084010 | 18 | 22 | 0.0 | 1.6 | 0.00 | 0.41 | 0.00 | 57 | 1012.4 |
| 20260506083510 | 18 | 315 | 0.0 | 0.0 | 0.00 | 0.41 | 0.00 | 57 | 1012.5 |
| 20260506083009 | 18 | 292 | 0.0 | 8.0 | 0.00 | 0.41 | 0.00 | 58 | 1012.4 |
| 20260506082510 | 18 | 182 | 1.6 | 9.7 | 0.00 | 0.41 | 0.00 | 58 | 1012.5 |
| 20260506082011 | 18 | 160 | 0.0 | 3.2 | 0.00 | 0.41 | 0.00 | 57 | 1012.4 |
| 20260506081510 | 19 | 292 | 0.0 | 1.6 | 0.00 | 0.41 | 0.00 | 56 | 1012.4 |
| 20260506081009 | 20 | 22 | 0.0 | 1.6 | 0.00 | 0.41 | 0.00 | 55 | 1012.4 |
| 20260506080511 | 20 | 90 | 0.0 | 0.0 | 0.00 | 0.41 | 0.00 | 56 | 1012.4 |
| 20260506073510 | 21 | 248 | 0.0 | 0.0 | 0.00 | 0.41 | 0.00 | 59 | 1012.2 |
| 20260506073009 | 20 | 338 | 0.0 | 0.0 | 0.00 | 0.41 | 0.00 | 60 | 1012.2 |
| 20260506072509 | 20 | 265 | 0.0 | 0.0 | 0.00 | 0.41 | 0.00 | 63 | 1012.3 |
| 20260506072010 | 19 | 22 | 0.0 | 0.0 | 0.00 | 0.41 | 0.00 | 67 | 1012.2 |
| 20260506071509 | 18 | 135 | 0.0 | 0.0 | 0.00 | 0.41 | 0.00 | 72 | 1012.2 |
| 20260506071009 | 16 | 158 | 0.0 | 0.0 | 0.00 | 0.41 | 0.00 | 83 | 1012.2 |
| 20260506070509 | 13 | 158 | 0.0 | 0.0 | 0.00 | 0.41 | 0.00 | 92 | 1012.2 |
| 20260506062510 | 8 | 158 | 0.0 | 0.0 | 0.00 | 0.41 | 0.00 | 94 | 1012.1 |
| 20260506062010 | 6 | 158 | 0.0 | 0.0 | 0.00 | 0.41 | 0.00 | 93 | 1012.1 |
| 20260506061509 | 6 | 158 | 0.0 | 0.0 | 0.00 | 0.41 | 0.00 | 93 | 1011.9 |
| 20260506061011 | 5 | 158 | 0.0 | 0.0 | 0.00 | 0.41 | 0.00 | 93 | 1011.9 |
| 20260506060510 | 5 | 158 | 0.0 | 0.0 | 0.00 | 0.41 | 0.00 | 92 | 1012.0 |
| 20260506051010 | 4 | 68 | 0.0 | 0.0 | 0.00 | 0.41 | 0.00 | 92 | 1011.8 |
| 20260506050513 | 4 | 68 | 0.0 | 0.0 | 0.00 | 0.41 | 0.00 | 92 | 1011.8 |
| 20260506045011 | 5 | 68 | 0.0 | 0.0 | 0.00 | 0.46 | 0.00 | 92 | 1011.9 |
| 20260506044509 | 5 | 68 | 0.0 | 0.0 | 0.00 | 0.46 | 0.00 | 92 | 1011.8 |
| 20260506044010 | 5 | 68 | 0.0 | 0.0 | 0.00 | 0.46 | 0.00 | 92 | 1011.7 |
| 20260506043509 | 5 | 68 | 0.0 | 0.0 | 0.00 | 0.46 | 0.00 | 92 | 1011.8 |
| 20260506043009 | 5 | 68 | 0.0 | 0.0 | 0.00 | 0.46 | 0.00 | 92 | 1011.8 |
| 20260506042510 | 5 | 68 | 0.0 | 0.0 | 0.00 | 0.46 | 0.00 | 92 | 1011.8 |
| 20260506042009 | 5 | 68 | 0.0 | 0.0 | 0.00 | 0.46 | 0.00 | 92 | 1011.8 |
| 20260506041511 | 5 | 68 | 0.0 | 0.0 | 0.00 | 0.46 | 0.00 | 92 | 1011.7 |
| 20260506041011 | 5 | 68 | 0.0 | 0.0 | 0.00 | 0.46 | 0.00 | 92 | 1011.8 |
| 20260506040509 | 5 | 68 | 0.0 | 0.0 | 0.00 | 0.46 | 0.00 | 92 | 1011.8 |
| 20260506040009 | 5 | 68 | 0.0 | 0.0 | 0.00 | 0.46 | 0.00 | 92 | 1011.9 |
| 20260506035509 | 5 | 68 | 0.0 | 0.0 | 0.00 | 0.46 | 0.00 | 92 | 1011.8 |
| 20260506035009 | 5 | 68 | 0.0 | 0.0 | 0.00 | 0.46 | 0.00 | 92 | 1011.9 |
| 20260506034509 | 5 | 68 | 0.0 | 0.0 | 0.00 | 0.46 | 0.00 | 92 | 1012.0 |
| 20260506034010 | 5 | 68 | 0.0 | 0.0 | 0.00 | 0.46 | 0.00 | 92 | 1011.9 |
| 20260506033509 | 5 | 71 | 0.0 | 0.0 | 0.00 | 0.46 | 0.00 | 91 | 1011.9 |
| 20260506033009 | 5 | 68 | 0.0 | 0.0 | 0.00 | 0.46 | 0.00 | 91 | 1011.8 |
| 20260506032510 | 5 | 68 | 0.0 | 0.0 | 0.00 | 0.46 | 0.00 | 91 | 1011.8 |
| 20260506032009 | 5 | 68 | 0.0 | 0.0 | 0.00 | 0.46 | 0.00 | 91 | 1011.8 |
| 20260506031509 | 5 | 68 | 0.0 | 0.0 | 0.00 | 0.46 | 0.00 | 91 | 1011.7 |
| 20260506031010 | 5 | 68 | 0.0 | 0.0 | 0.00 | 0.46 | 0.00 | 91 | 1011.8 |
| 20260506030509 | 5 | 68 | 0.0 | 0.0 | 0.00 | 0.46 | 0.00 | 92 | 1011.8 |
| 20260506030009 | 5 | 68 | 0.0 | 0.0 | 0.00 | 0.46 | 0.00 | 92 | 1011.9 |
| 20260506025509 | 5 | 68 | 0.0 | 0.0 | 0.00 | 0.46 | 0.00 | 92 | 1011.9 |
| 20260506025009 | 5 | 68 | 0.0 | 0.0 | 0.00 | 0.46 | 0.00 | 92 | 1012.0 |
| 20260506024509 | 5 | 68 | 0.0 | 0.0 | 0.00 | 0.46 | 0.00 | 92 | 1012.0 |
| 20260506024010 | 5 | 68 | 0.0 | 0.0 | 0.00 | 0.46 | 0.00 | 92 | 1012.1 |
| 20260506023509 | 5 | 68 | 0.0 | 0.0 | 0.00 | 0.46 | 0.00 | 92 | 1011.9 |
| 20260506023009 | 5 | 68 | 0.0 | 0.0 | 0.00 | 0.46 | 0.00 | 92 | 1012.1 |
| 20260506022509 | 5 | 68 | 0.0 | 0.0 | 0.00 | 0.51 | 0.00 | 92 | 1012.1 |
| 20260506022010 | 5 | 68 | 0.0 | 0.0 | 0.00 | 0.51 | 0.00 | 92 | 1011.8 |
| 20260506021509 | 5 | 68 | 0.0 | 0.0 | 0.00 | 0.56 | 0.00 | 92 | 1011.9 |
| 20260506021010 | 5 | 68 | 0.0 | 0.0 | 0.00 | 0.56 | 0.00 | 92 | 1012.2 |
| 20260506020510 | 5 | 68 | 0.0 | 0.0 | 0.00 | 0.56 | 0.00 | 91 | 1012.1 |
| 20260506020009 | 5 | 68 | 0.0 | 0.0 | 0.00 | 0.56 | 0.00 | 91 | 1012.0 |
| 20260506015509 | 5 | 68 | 0.0 | 0.0 | 0.00 | 0.56 | 0.00 | 91 | 1012.0 |
| 20260506015009 | 5 | 68 | 0.0 | 0.0 | 0.00 | 0.56 | 0.00 | 91 | 1012.1 |
| 20260506014509 | 5 | 68 | 0.0 | 0.0 | 0.00 | 0.56 | 0.00 | 91 | 1012.1 |
| 20260506014010 | 5 | 68 | 0.0 | 0.0 | 0.00 | 0.56 | 0.00 | 91 | 1012.2 |
| 20260506013510 | 5 | 90 | 0.0 | 0.0 | 0.00 | 0.56 | 0.00 | 91 | 1012.0 |
| 20260506013008 | 5 | 90 | 0.0 | 0.0 | 0.00 | 0.56 | 0.00 | 91 | 1012.2 |
| 20260506012510 | 5 | 90 | 0.0 | 0.0 | 0.00 | 0.56 | 0.00 | 91 | 1012.2 |
| 20260506012010 | 5 | 90 | 0.0 | 0.0 | 0.00 | 0.56 | 0.00 | 91 | 1012.3 |
| 20260506011510 | 5 | 90 | 0.0 | 0.0 | 0.00 | 0.56 | 0.00 | 91 | 1012.1 |
| 20260506011009 | 5 | 90 | 0.0 | 0.0 | 0.00 | 0.56 | 0.00 | 91 | 1012.2 |
| 20260506010509 | 5 | 90 | 0.0 | 0.0 | 0.00 | 0.56 | 0.00 | 91 | 1012.2 |
| 20260506010009 | 5 | 90 | 0.0 | 0.0 | 0.00 | 0.56 | 0.00 | 91 | 1012.3 |
| 20260506005510 | 5 | 90 | 0.0 | 0.0 | 0.00 | 0.56 | 0.00 | 91 | 1012.3 |
| 20260506005010 | 5 | 90 | 0.0 | 0.0 | 0.00 | 0.56 | 0.00 | 91 | 1012.5 |
| 20260506004511 | 5 | 90 | 0.0 | 0.0 | 0.00 | 0.56 | 0.00 | 91 | 1012.5 |
| 20260506004010 | 5 | 90 | 0.0 | 0.0 | 0.00 | 0.56 | 0.00 | 91 | 1012.4 |
| 20260506003509 | 5 | 90 | 0.0 | 0.0 | 0.00 | 0.56 | 0.00 | 91 | 1012.5 |
| 20260506003009 | 5 | 90 | 0.0 | 0.0 | 0.00 | 0.56 | 0.00 | 91 | 1012.5 |
| 20260506002509 | 5 | 90 | 0.0 | 0.0 | 0.00 | 0.56 | 0.00 | 91 | 1012.7 |
| 20260506002009 | 5 | 90 | 0.0 | 0.0 | 0.00 | 0.56 | 0.00 | 91 | 1012.8 |
| 20260506001508 | 5 | 90 | 0.0 | 0.0 | 0.00 | 0.56 | 0.00 | 91 | 1012.8 |
| 20260506001010 | 5 | 90 | 0.0 | 0.0 | 0.00 | 0.56 | 0.00 | 91 | 1012.7 |
| 20260506000510 | 5 | 90 | 0.0 | 0.0 | 0.00 | 0.56 | 0.00 | 91 | 1012.8 |
| 20260506000009 | 5 | 90 | 0.0 | 0.0 | 0.00 | 0.56 | 0.00 | 91 | 1012.9 |
| 20260505235510 | 5 | 90 | 0.0 | 0.0 | 0.00 | 0.56 | 0.00 | 91 | 1012.7 |
| 20260505235009 | 5 | 90 | 0.0 | 0.0 | 0.00 | 0.56 | 0.00 | 91 | 1012.7 |
| 20260505234510 | 5 | 90 | 0.0 | 0.0 | 0.00 | 0.56 | 0.00 | 91 | 1012.7 |
| 20260505234009 | 5 | 90 | 0.0 | 0.0 | 0.00 | 0.56 | 0.00 | 91 | 1012.7 |
| 20260505233511 | 5 | 90 | 0.0 | 0.0 | 0.00 | 0.56 | 0.00 | 91 | 1012.8 |
| 20260505233011 | 5 | 90 | 0.0 | 0.0 | 0.00 | 0.56 | 0.00 | 91 | 1012.8 |
| 20260505232510 | 5 | 90 | 0.0 | 0.0 | 0.00 | 0.61 | 0.00 | 91 | 1012.7 |
| 20260505232009 | 5 | 90 | 0.0 | 0.0 | 0.00 | 0.61 | 0.00 | 91 | 1012.7 |
| 20260505231510 | 5 | 90 | 0.0 | 0.0 | 0.00 | 0.61 | 0.00 | 91 | 1012.8 |
| 20260505231012 | 5 | 90 | 0.0 | 0.0 | 0.00 | 0.61 | 0.00 | 91 | 1012.9 |
| 20260505230511 | 5 | 90 | 0.0 | 0.0 | 0.00 | 0.61 | 0.00 | 91 | 1012.8 |
| 20260505230009 | 5 | 90 | 0.0 | 0.0 | 0.00 | 0.61 | 0.00 | 91 | 1012.7 |
| 20260505225511 | 5 | 85 | 0.0 | 0.0 | 0.00 | 0.61 | 0.00 | 91 | 1012.8 |
| 20260505225011 | 5 | 248 | 0.0 | 0.0 | 0.00 | 0.66 | 0.00 | 90 | 1012.8 |
| 20260505224509 | 5 | 248 | 0.0 | 0.0 | 0.00 | 0.66 | 0.00 | 90 | 1012.7 |
| 20260505224010 | 5 | 248 | 0.0 | 0.0 | 0.00 | 0.71 | 0.00 | 90 | 1012.9 |
| 20260505223508 | 5 | 248 | 0.0 | 0.0 | 0.00 | 0.71 | 0.00 | 90 | 1012.9 |
| 20260505223008 | 5 | 248 | 0.0 | 0.0 | 0.00 | 0.71 | 0.00 | 89 | 1012.9 |
| 20260505222510 | 5 | 248 | 0.0 | 0.0 | 0.00 | 0.71 | 0.00 | 89 | 1012.9 |
| 20260505222010 | 5 | 248 | 0.0 | 0.0 | 0.00 | 0.71 | 0.00 | 89 | 1012.9 |
| 20260505221509 | 5 | 248 | 0.0 | 0.0 | 0.00 | 0.71 | 0.00 | 89 | 1012.8 |
| 20260505221011 | 5 | 248 | 0.0 | 0.0 | 0.00 | 0.71 | 0.00 | 89 | 1012.9 |
| 20260505220509 | 5 | 248 | 0.0 | 0.0 | 0.00 | 0.71 | 0.00 | 89 | 1012.9 |
| 20260505220011 | 5 | 248 | 0.0 | 0.0 | 0.00 | 0.71 | 0.00 | 89 | 1012.9 |
| 20260505215509 | 5 | 253 | 0.0 | 0.0 | 0.00 | 0.71 | 0.71 | 89 | 1012.9 |
| 20260505215009 | 5 | 248 | 0.0 | 0.0 | 0.00 | 0.71 | 0.71 | 89 | 1012.8 |
| 20260505214510 | 5 | 248 | 0.0 | 0.0 | 0.00 | 0.71 | 0.71 | 89 | 1012.8 |
| 20260505214008 | 5 | 248 | 0.0 | 0.0 | 0.00 | 0.71 | 0.71 | 89 | 1012.8 |
| 20260505213509 | 6 | 248 | 0.0 | 0.0 | 0.00 | 0.71 | 0.71 | 89 | 1012.9 |
| 20260505213009 | 6 | 254 | 0.0 | 0.0 | 0.00 | 0.71 | 0.71 | 89 | 1012.8 |
| 20260505212509 | 6 | 248 | 0.0 | 0.0 | 0.00 | 0.71 | 0.71 | 89 | 1013.0 |
| 20260505212009 | 6 | 248 | 0.0 | 0.0 | 0.00 | 0.71 | 0.71 | 89 | 1013.0 |
| 20260505211508 | 6 | 248 | 0.0 | 0.0 | 0.00 | 0.71 | 0.71 | 89 | 1012.9 |
| 20260505211008 | 6 | 248 | 0.0 | 0.0 | 0.00 | 0.71 | 0.71 | 89 | 1013.0 |
| 20260505210509 | 5 | 248 | 0.0 | 0.0 | 0.00 | 0.71 | 0.71 | 88 | 1013.2 |
| 20260505210008 | 5 | 248 | 0.0 | 0.0 | 0.00 | 0.71 | 0.71 | 88 | 1013.2 |
| 20260505205509 | 6 | 248 | 0.0 | 0.0 | 0.00 | 0.71 | 0.71 | 88 | 1012.9 |
| 20260505205009 | 6 | 248 | 0.0 | 0.0 | 0.00 | 0.71 | 0.71 | 88 | 1012.9 |
| 20260505204509 | 6 | 248 | 0.0 | 0.0 | 0.00 | 0.71 | 0.71 | 87 | 1012.9 |
| 20260505204008 | 6 | 248 | 0.0 | 0.0 | 0.00 | 0.71 | 0.71 | 87 | 1012.9 |
| 20260505203509 | 6 | 248 | 0.0 | 0.0 | 0.00 | 0.71 | 0.71 | 87 | 1012.9 |
| 20260505203009 | 6 | 248 | 0.0 | 0.0 | 0.00 | 0.71 | 0.71 | 87 | 1012.9 |
| 20260505202509 | 6 | 248 | 0.0 | 0.0 | 0.00 | 0.71 | 0.71 | 87 | 1012.8 |
| 20260505202010 | 6 | 248 | 0.0 | 0.0 | 0.00 | 0.71 | 0.71 | 87 | 1012.8 |
| 20260505201510 | 6 | 248 | 0.0 | 0.0 | 0.00 | 0.71 | 0.71 | 87 | 1012.7 |
| 20260505201009 | 6 | 338 | 0.0 | 0.0 | 0.00 | 0.71 | 0.71 | 87 | 1012.8 |
| 20260505200509 | 7 | 338 | 0.0 | 0.0 | 0.00 | 0.71 | 0.71 | 87 | 1012.7 |
| 20260505200009 | 7 | 338 | 0.0 | 0.0 | 0.00 | 0.71 | 0.71 | 87 | 1012.6 |
| 20260505195509 | 7 | 338 | 0.0 | 0.0 | 0.00 | 0.71 | 0.71 | 86 | 1012.7 |
| 20260505195010 | 7 | 338 | 0.0 | 0.0 | 0.00 | 0.71 | 0.71 | 86 | 1012.7 |
| 20260505194509 | 7 | 338 | 0.0 | 0.0 | 0.00 | 0.71 | 0.71 | 86 | 1012.6 |
| 20260505194010 | 7 | 0 | 0.0 | 0.0 | 0.00 | 0.71 | 0.71 | 85 | 1012.5 |
| 20260505193510 | 7 | 0 | 0.0 | 0.0 | 0.00 | 0.71 | 0.71 | 86 | 1012.5 |
| 20260505193013 | 7 | 0 | 0.0 | 0.0 | 0.00 | 0.71 | 0.71 | 86 | 1012.7 |
| 20260505192509 | 8 | 0 | 0.0 | 0.0 | 0.00 | 0.71 | 0.71 | 86 | 1012.5 |
| 20260505192009 | 8 | 22 | 0.0 | 0.0 | 0.00 | 0.71 | 0.71 | 86 | 1012.5 |
| 20260505191508 | 8 | 22 | 0.0 | 0.0 | 0.00 | 0.71 | 0.71 | 85 | 1012.4 |
| 20260505191009 | 8 | 302 | 0.0 | 0.0 | 0.00 | 0.71 | 0.71 | 85 | 1012.5 |
| 20260505190509 | 8 | 292 | 0.0 | 0.0 | 0.00 | 0.71 | 0.71 | 85 | 1012.3 |
| 20260505190010 | 8 | 292 | 0.0 | 0.0 | 0.00 | 0.71 | 0.71 | 84 | 1012.3 |
| 20260505185510 | 8 | 292 | 0.0 | 0.0 | 0.00 | 0.71 | 0.71 | 84 | 1012.3 |
| 20260505185010 | 8 | 292 | 0.0 | 0.0 | 0.00 | 0.71 | 0.71 | 84 | 1012.3 |
| 20260505184509 | 9 | 292 | 0.0 | 0.0 | 0.00 | 0.71 | 0.71 | 84 | 1012.3 |
| 20260505184009 | 9 | 311 | 0.0 | 0.0 | 0.00 | 0.71 | 0.71 | 84 | 1012.3 |
| 20260505183509 | 9 | 315 | 0.0 | 0.0 | 0.00 | 0.71 | 0.71 | 84 | 1012.4 |
| 20260505183008 | 9 | 315 | 0.0 | 0.0 | 0.00 | 0.71 | 0.71 | 84 | 1012.3 |
| 20260505182509 | 9 | 315 | 0.0 | 0.0 | 0.00 | 0.71 | 0.71 | 83 | 1012.3 |
| 20260505182008 | 9 | 315 | 0.0 | 0.0 | 0.00 | 0.71 | 0.71 | 83 | 1012.3 |
| 20260505181508 | 9 | 292 | 0.0 | 0.0 | 0.00 | 0.71 | 0.71 | 83 | 1012.2 |
| 20260505181008 | 9 | 292 | 0.0 | 0.0 | 0.00 | 0.71 | 0.71 | 83 | 1012.3 |
| 20260505180509 | 9 | 292 | 0.0 | 0.0 | 0.00 | 0.71 | 0.71 | 83 | 1012.2 |
| 20260505180009 | 9 | 292 | 0.0 | 0.0 | 0.00 | 0.71 | 0.71 | 83 | 1012.2 |
| 20260505175509 | 9 | 292 | 0.0 | 0.0 | 0.05 | 0.71 | 0.71 | 83 | 1012.3 |
| 20260505175010 | 9 | 292 | 0.0 | 0.0 | 0.10 | 0.71 | 0.71 | 83 | 1012.2 |
| 20260505174508 | 9 | 292 | 0.0 | 0.0 | 0.15 | 0.71 | 0.71 | 83 | 1012.2 |
| 20260505174008 | 9 | 292 | 0.0 | 0.0 | 0.20 | 0.71 | 0.71 | 82 | 1012.1 |
| 20260505173509 | 10 | 292 | 0.0 | 0.0 | 0.20 | 0.71 | 0.71 | 82 | 1012.2 |
| 20260505173008 | 10 | 292 | 0.0 | 0.0 | 0.20 | 0.71 | 0.71 | 82 | 1012.1 |
| 20260505172509 | 9 | 292 | 0.0 | 0.0 | 0.20 | 0.71 | 0.71 | 82 | 1012.1 |
| 20260505172009 | 9 | 304 | 0.0 | 0.0 | 0.20 | 0.71 | 0.71 | 82 | 1012.2 |
| 20260505171509 | 9 | 45 | 0.0 | 0.0 | 0.20 | 0.71 | 0.71 | 81 | 1012.3 |
| 20260505171009 | 9 | 22 | 0.0 | 0.0 | 0.20 | 0.71 | 0.71 | 81 | 1012.3 |
| 20260505170509 | 9 | 22 | 0.0 | 0.0 | 0.20 | 0.71 | 0.71 | 80 | 1012.3 |
| 20260505170009 | 9 | 27 | 0.0 | 0.0 | 0.20 | 0.71 | 0.71 | 79 | 1012.4 |
| 20260505165508 | 10 | 34 | 0.0 | 0.0 | 0.15 | 0.66 | 0.66 | 78 | 1012.4 |
| 20260505165009 | 10 | 27 | 0.0 | 0.0 | 0.10 | 0.61 | 0.61 | 77 | 1012.4 |
| 20260505164508 | 11 | 2 | 0.0 | 4.8 | 0.05 | 0.56 | 0.56 | 76 | 1012.5 |
| 20260505164009 | 11 | 26 | 0.0 | 3.2 | 0.00 | 0.51 | 0.51 | 75 | 1012.5 |
| 20260505163509 | 12 | 22 | 0.0 | 0.0 | 0.00 | 0.51 | 0.51 | 74 | 1012.4 |
| 20260505163009 | 12 | 22 | 0.0 | 0.0 | 0.00 | 0.51 | 0.51 | 74 | 1012.2 |
| 20260505162508 | 12 | 225 | 0.0 | 0.0 | 0.00 | 0.51 | 0.51 | 74 | 1012.2 |
| 20260505162008 | 12 | 225 | 0.0 | 0.0 | 0.00 | 0.51 | 0.51 | 74 | 1012.1 |
| 20260505161508 | 12 | 0 | 0.0 | 0.0 | 0.00 | 0.51 | 0.51 | 74 | 1012.1 |
| 20260505161008 | 12 | 0 | 0.0 | 0.0 | 0.00 | 0.51 | 0.51 | 74 | 1012.0 |
| 20260505160508 | 13 | 0 | 0.0 | 0.0 | 0.00 | 0.51 | 0.51 | 74 | 1012.1 |